Regional Weather Roundup
Issued by NWS

Home | Current Version | Previous Version | Graphics & Text | Print | Product List | Glossary On
Versions: 1 2 3 4 5 6 7 8 9 10 11 12 13 14 15 16 17 18 19 20 21 22 23 24 25 26 27 28 29 30 31 32 33 34 35 36 37 38 39 40 41 42 43 44 45 46 47 48 49 50
000
ASUS43 KMPX 031901
RWRMN
WEATHER ROUNDUP FOR MINNESOTA
NATIONAL WEATHER SERVICE TWIN CITIES/CHANHASSEN MN
200 PM CDT TUE MAY 03 2016


NOTE: "FAIR" INDICATES FEW OR NO CLOUDS BELOW 12,000 FEET WITH NO
SIGNIFICANT WEATHER AND/OR OBSTRUCTIONS TO VISIBILITY. N/A MEANS
CURRENT SKY AND/OR WEATHER CONDITIONS ARE NOT AVAILABLE.

MNZ060>063-068>070-032000-
   Twin Cities Metro

CITY           SKY/WX    TMP DP  RH WIND       PRES   REMARKS
TWIN CITIES    PTSUNNY   69  39  33 W16G31    29.78F
ST PAUL        MOSUNNY   69  39  33 W18G31    29.78F
CRYSTAL        MOSUNNY   71  38  29 W21G29    29.77F
BLAINE         PTSUNNY   72  39  30 MISG        N/A
EDEN PRAIRIE   MOSUNNY   72  37  28 W21G30    29.78F
SOUTH ST PAUL  MOSUNNY   69  36  29 W16G23    29.78F
LAKE ELMO      FAIR      70  41  35 W21G29    29.79F
$$
MNZ001>005-007-008-013>017-022>024-027-028-032000-
   Northwest Minnesota

CITY           SKY/WX    TMP DP  RH WIND       PRES   REMARKS
BEMIDJI        SUNNY     64  28  25 N20G29    29.78R
HALLOCK        SUNNY     64  23  20 N28G35    29.88S
ROSEAU         SUNNY     64  23  20 N17G29    29.85S
WARROAD        SUNNY     63  32  31 N18G24    29.84S
THIEF RVR FALL SUNNY     63  27  25 N25       29.87R
CROOKSTON      SUNNY     66  28  24 N29G37    29.87S
FOSSTON        SUNNY     66  19  16 NW26G33   29.83S
DETROIT LAKES  SUNNY     68  28  22 N21G30    29.81S
MOORHEAD       SUNNY     72  27  18 N26G38    29.84S
PARK RAPIDS    SUNNY     68  29  23 N18G30    29.75F
MAHNOMEN       FAIR      66  29  25 N26G36    29.81F
$$
MNZ006-009>011-018-025>026-032000-
   North Central Minnesota

CITY           SKY/WX    TMP DP  RH WIND       PRES   REMARKS
BAUDETTE       SUNNY     61  28  28 N21G31    29.81R
FLAG ISLAND    MOSUNNY   55  30  38 N18       29.83R
INTL FALLS     MOSUNNY   62  31  31 N18G26    29.75R
WASKISH        SUNNY     63  30  29 N18G25    29.80R
BIG FORK       SUNNY     64  28  25 N13G21    29.73S
LONGVILLE      SUNNY     66  30  26 NW13G21   29.75F
GRAND RAPIDS   MOSUNNY   64  28  25 NW22G32   29.73F
CRANE LAKE     MOSUNNY   61  27  27 N13G24    29.72S
ORR            MOSUNNY   64  25  22 NW10G23   29.69S
COOK           MOSUNNY   64  30  27 N13G22    29.70S
WALKER         FAIR      66  30  26 NW16G25   29.75F
$$
MNZ012-019>021-037-032000-
   Northeast Minnesota

CITY           SKY/WX    TMP DP  RH WIND       PRES   REMARKS
DULUTH         PTSUNNY   66  36  32 NW15G26   29.66F
ELY            PTSUNNY   59  34  38 NW8       29.67F
HIBBING        MOSUNNY   63  31  30 NW24G31   29.69F
EVELETH        SUNNY     63  28  27 NW14G25   29.69F
DULUTH HARBOR  MOSUNNY   66  37  34 NW20G25   29.66F
TWO HARBORS    MOSUNNY   70  41  35 NW10G24   29.65F
SILVER BAY     MOSUNNY   66  30  26 W8        29.64F
GRAND MARAIS     N/A     56  45  66 W5        29.62
G MARAIS ARPRT LGT RAIN  52  37  58 N15G30    29.65R
$$
MNZ029>031-032-039>041-046>048-054>057-064-032000-
   West Central Minnesota

CITY           SKY/WX    TMP DP  RH WIND       PRES   REMARKS
FERGUS FALLS   SUNNY     72  36  26 N23G36    29.76F
WHEATON        MOSUNNY   75  43  31 NW18G31   29.81F
MORRIS         SUNNY     73  41  31 NW18      29.79F
ALEXANDRIA     MOSUNNY   71  40  32 W21G29    29.79F
ELBOW LAKE     FAIR      70  40  33 W24G32    29.78F
WADENA         SUNNY     70  36  28 NW23G29   29.75F
GLENWOOD       SUNNY     70  39  32 W18G28    29.79F
APPLETON       CLOUDY    72  37  28 W21G28    29.81F
BENSON         MOSUNNY   73  36  25 NW12G26   29.80F
ORTONVILLE     PTSUNNY   72  39  30 NW17G24   29.83F
MADISON        PTSUNNY   70  39  32 NW17      29.84F
WILLMAR        FAIR      70  39  32 W16G23    29.82F
$$
MNZ033>034-036-042>043-049>051-058-059-032000-
   Central Minnesota

CITY           SKY/WX    TMP DP  RH WIND       PRES   REMARKS
ST CLOUD       CLOUDY    68  39  34 W16G28    29.75F
SAUK CENTRE    FAIR      67  41  38 W22       29.77F
PAYNESVILLE    CLOUDY    68  38  32 W17G24    29.80F
AITKIN         MOSUNNY   70  28  21 NW10G21   29.69F
PINE RIVER     MOSUNNY   68  37  32 NW18G29   29.77F
BRAINERD       PTSUNNY   68  39  34 W15G23    29.72F
STAPLES        PTSUNNY   70  37  30 W17G28    29.74F
LONG PRAIRIE   PTSUNNY   68  43  40 W18G28    29.78F
LITTLE FALLS   PTSUNNY   66  37  34 W14G21    29.75F
LITCHFIELD     SUNNY     70  41  35 W13G24    29.80F
BUFFALO        PTSUNNY   68  37  32 SW15G24   29.79F
MAPLE LAKE     PTSUNNY   67  42  39 SW12G26   29.80F
HUTCHINSON     SUNNY     71  42  35 W18G30    29.81F
$$
MNZ037-044-045-052-053-032000-
   East Central Minnesota

CITY           SKY/WX    TMP DP  RH WIND       PRES   REMARKS
PRINCETON      PTSUNNY   70  39  32 SW14      29.75F
MORA           CLOUDY    64  37  36 W17G26    29.73F
CAMBRIDGE      CLOUDY    70  46  43 W15G22    29.73F
RUSH CITY      CLOUDY    66  39  36 SW13G23   29.72F
MOOSE LAKE     PTSUNNY   68  39  34 W9G24     29.67F
HINCKLEY       MOCLDY    66  41  39 W18G26    29.71F
CLOQUET        MOSUNNY   66  32  28 W21G26    29.68F
MCGREGOR       MOSUNNY   68  36  30 NW17G29   29.70F
$$
MNZ071>073-080-081-089-090-097-098-032000-
   Southwest Minnesota

CITY           SKY/WX    TMP DP  RH WIND       PRES   REMARKS
MONTEVIDEO     CLOUDY    72  37  28 NW10G21   29.84F
GRANITE FALLS  MOSUNNY   72  42  34 W21G29    29.85F
CANBY          PTSUNNY   71  43  37 NW14      29.87F
MARSHALL       MOSUNNY   68  41  37 NW25G32   29.84F
REDWOOD FALLS  MOSUNNY   70  42  36 W18G25    29.83F
OLIVIA         CLOUDY    70  43  37 W18G26    29.82F
PIPESTONE      MOSUNNY   66  43  42 NW18G29   29.90F
WINDOM         MOSUNNY   66  41  39 W22G30    29.87F
WORTHINGTON    PTSUNNY   64  45  49 W25       29.90F
JACKSON        PTSUNNY   64  43  45 W24       29.89F
TRACY          MOSUNNY   68  43  40 NW21      29.87F
SLAYTON        CLOUDY    64  42  43 W23G29    29.91F
$$
MNZ065>067-074>077-082>085-091>093-032000-
   South Central Minnesota

CITY           SKY/WX    TMP DP  RH WIND       PRES   REMARKS
MANKATO        MOSUNNY   66  36  32 W20G26    29.84F
ST JAMES       MOSUNNY   63  39  42 W15G23    29.86F
FAIRMONT       MOSUNNY   66  41  39 W18G26    29.87F
GLENCOE        MOSUNNY   70  42  36 W20G30    29.80F
FARIBAULT      MOSUNNY   68  37  32 W16G22    29.84F
OWATONNA       MOSUNNY   68  34  28 W18       29.84F
WASECA         PTSUNNY   68  36  30 W20G30    29.86F
ALBERT LEA     MOSUNNY   66  36  32 W13       29.86F
$$
MNZ078>079-086>088-094>096-032000-
   Southeast Minnesota

CITY           SKY/WX    TMP DP  RH WIND       PRES   REMARKS
ROCHESTER      CLOUDY    66  39  37 W22G30    29.84F
RED WING       PTSUNNY   70  34  26 W21G26    29.78F
STANTON        PTSUNNY   68  36  30 W22G28    29.80F
DODGE CENTER   CLOUDY    66  36  32 W18G31    29.84F
WINONA         PTSUNNY   70  34  26 NW12G22   29.80F
AUSTIN         MOSUNNY   64  36  34 W16       29.86F
PRESTON        PTSUNNY   64  36  35 W17G25    29.85F
$$
ABBREVIATIONS USED IN REMARKS
   TC - TEMPERATURES IN CELSIUS
  WCI - WIND CHILL INDEX
   HX - HEAT INDEX
  VSB - VISIBILITY
$$



USA.gov is the U.S. government's official web portal to all federal, state and local government web resources and services.